Wind_Speed
75 73 71 68 67 67 69 71 72 73 72 70 69 67 66 64 62 60 59 58 55 54 56 53 50 48 45 43 42 38 31 29 29 29 32 32 28 27 23 19 17 16 17 18 18 18 18 18 18 17 17 15 15 15 16 17 17 18 17 15 15 15 14 12 8 5 5 6 9 13 16 14 12 14 15 14 14 14 13 13 13 13 14 15 17 18
77 75 73 72 71 70 70 73 75 75 72 69 68 67 66 64 63 62 60 59 57 55 57 56 54 51 48 44 44 42 36 35 34 32 34 32 27 25 21 19 22 21 20 19 19 19 18 18 18 18 17 16 15 15 15 16 16 18 18 15 13 14 13 12 9 5 3 4 7 11 15 15 12 12 13 13 14 14 12 12 12 12 12 14 16 17
79 77 77 76 75 73 71 72 74 74 72 69 67 68 67 66 66 64 62 60 59 58 57 57 56 54 52 48 45 42 39 40 39 36 34 30 25 24 22 24 27 25 21 20 20 19 17 17 18 18 18 16 15 14 14 15 16 17 17 16 13 13 12 12 10 7 3 3 6 10 13 15 13 10 11 12 12 13 12 11 11 10 11 12 14 16
81 81 80 80 79 76 73 72 73 73 70 67 69 70 70 70 69 67 65 63 61 60 59 59 58 56 55 52 48 44 40 40 41 39 36 32 29 28 28 29 29 25 21 21 21 19 17 18 19 20 20 18 16 15 14 15 15 16 17 16 14 12 12 11 10 8 5 2 4 8 11 14 13 10 9 11 12 12 12 11 10 9 10 10 12 13
84 84 83 83 82 79 76 74 74 72 68 68 71 73 73 72 72 70 67 66 63 62 62 61 60 59 57 55 52 49 44 40 39 39 39 38 33 30 30 30 28 25 22 21 20 19 19 18 19 20 20 19 17 16 15 14 15 16 16 16 15 13 12 11 11 9 7 3 3 6 9 11 12 10 9 9 11 11 11 11 9 8 8 9 10 11
87 86 86 85 83 81 79 77 76 72 68 70 72 72 74 74 73 72 69 67 65 64 64 64 62 61 59 56 54 52 49 44 39 37 40 41 35 31 32 31 28 26 23 20 20 21 21 20 20 21 21 21 20 18 16 14 14 15 15 15 15 14 12 12 11 10 9 5 3 4 5 8 10 10 9 8 9 10 9 10 9 8 7 7 8 9
89 88 88 87 84 83 81 81 78 72 69 72 72 73 76 76 74 73 71 69 67 66 66 65 64 63 60 58 56 54 52 48 43 39 38 40 38 35 35 33 31 31 27 24 25 25 23 22 23 23 23 22 21 19 17 14 14 15 15 15 15 15 14 12 11 11 11 6 2 1 2 5 7 9 10 8 7 8 8 9 9 7 7 6 7 8
91 91 90 88 87 85 83 82 78 73 74 75 73 74 76 75 74 73 71 69 69 69 67 66 65 65 63 61 59 58 55 52 49 43 38 40 42 41 39 37 34 34 34 33 31 28 25 24 25 25 23 22 21 20 18 16 15 16 15 14 14 15 15 13 12 10 11 7 1 2 2 3 4 7 9 9 7 7 8 8 8 7 6 5 5 6
93 94 92 90 89 86 83 82 79 78 80 79 76 75 75 73 73 74 72 71 70 70 68 66 66 66 65 63 61 59 57 54 51 46 41 42 46 46 43 39 34 33 35 35 33 30 28 27 28 27 24 22 22 21 17 15 15 16 16 14 13 14 15 15 13 11 10 9 4 3 4 4 3 4 7 9 8 7 7 7 7 7 5 5 4 4
95 96 94 93 90 87 85 85 83 83 84 83 80 78 75 73 74 75 74 72 71 70 68 67 67 67 65 65 64 61 58 57 54 50 46 44 46 46 45 41 36 34 33 33 34 33 31 30 29 27 24 23 23 22 18 16 16 15 15 14 13 14 16 17 15 11 9 9 6 5 7 6 4 2 4 6 7 7 6 6 6 6 5 4 3 3
97 98 96 93 90 88 88 88 86 86 87 86 83 79 75 73 73 75 74 73 72 71 70 70 69 69 67 66 65 63 62 60 57 57 55 51 48 46 45 43 40 39 38 37 39 36 32 31 29 25 22 22 24 24 19 16 15 14 14 15 15 15 16 18 17 13 9 8 8 8 8 8 6 4 3 4 6 6 5 5 5 5 5 3 2 2
97 97 94 92 92 91 91 90 88 87 88 88 86 82 78 75 74 73 70 70 71 70 71 71 69 69 69 67 65 64 65 62 60 61 59 56 53 49 47 45 42 43 43 40 38 37 36 34 28 24 22 23 24 22 19 17 16 15 16 18 17 16 17 19 19 15 10 8 9 10 11 10 8 6 4 3 3 4 5 5 4 4 3 2 2 1
96 95 93 93 94 94 94 92 90 89 90 90 88 84 80 78 75 71 68 69 70 69 69 70 70 70 69 68 66 64 64 65 64 63 60 58 56 52 50 47 44 44 44 41 37 37 38 35 29 26 25 25 23 19 18 18 19 18 19 20 19 18 19 21 21 17 12 10 10 11 13 12 10 9 7 5 3 2 3 4 3 2 2 1 1 1
95 95 95 95 97 97 96 94 91 90 90 90 88 85 83 80 75 72 71 70 70 70 70 71 73 72 69 67 67 66 65 66 66 64 62 62 60 56 53 51 48 46 45 43 39 36 37 36 33 31 30 29 26 21 19 19 19 19 20 20 19 19 21 22 23 20 15 11 11 13 14 14 12 10 9 8 5 3 2 2 3 1 1 1 2 3
97 98 98 96 98 99 96 93 92 92 92 90 88 88 86 82 78 76 75 73 72 72 71 73 75 73 70 68 67 66 66 64 64 65 63 61 60 59 57 54 52 47 43 43 41 37 37 36 34 33 33 32 29 25 21 19 20 21 20 19 19 20 21 23 24 23 18 14 13 14 16 15 14 12 12 10 9 6 4 1 2 3 2 2 3 4
97 97 98 97 99 100 98 97 97 95 93 91 90 90 87 84 83 82 79 78 77 75 73 74 75 72 71 70 67 66 65 62 60 61 60 60 61 60 56 53 51 47 39 38 39 38 36 33 31 33 33 32 29 25 22 22 22 22 21 19 19 19 21 23 24 24 20 16 15 15 17 17 15 14 13 13 12 10 7 4 2 4 4 4 4 5
96 96 100 100 100 100 99 100 100 97 95 95 93 91 88 86 86 85 84 83 80 77 76 75 74 71 70 69 67 67 66 65 63 60 59 60 60 60 58 55 54 50 43 38 37 36 34 31 31 32 32 31 29 25 24 23 23 23 22 19 19 20 20 22 23 23 22 18 17 17 17 18 17 15 15 15 14 12 9 6 4 5 6 6 6 7
96 98 103 103 100 100 101 102 102 100 99 98 95 92 89 88 89 89 88 86 83 80 79 77 74 71 70 68 67 66 65 66 66 65 65 64 62 62 62 62 60 56 51 48 45 43 40 36 33 31 31 31 28 25 23 23 23 24 22 19 19 20 20 20 21 23 22 19 19 19 19 18 18 17 18 18 16 14 12 9 7 7 8 8 8 8
97 101 105 102 99 101 103 104 103 101 101 99 96 94 91 90 90 90 88 87 84 81 81 79 75 73 71 69 68 66 64 65 66 66 69 69 67 65 64 65 66 62 59 54 51 49 46 40 36 33 31 29 25 22 21 20 21 22 21 18 18 18 19 19 21 22 20 19 19 20 20 19 18 18 19 19 17 16 15 12 10 9 10 10 9 9
96 101 103 99 97 101 103 103 102 101 101 99 96 93 91 90 89 89 88 87 86 84 83 80 78 77 74 70 68 67 65 65 66 67 69 69 67 66 66 66 67 65 64 60 57 55 51 47 44 38 32 28 24 22 20 17 18 18 18 18 17 18 20 21 22 23 21 19 20 21 21 19 18 18 18 19 18 17 17 15 13 12 12 12 11 11
92 97 99 97 98 101 102 101 101 101 102 101 97 94 93 92 91 90 90 89 89 89 86 83 82 79 76 73 70 68 67 67 65 64 66 67 65 66 66 66 66 64 62 59 56 55 53 51 47 41 33 26 22 22 21 20 21 20 21 20 17 18 21 21 23 25 23 21 20 20 20 19 18 18 18 18 18 18 19 18 16 15 14 13 12 12
91 94 97 98 98 99 99 100 101 103 104 103 100 98 96 95 95 94 91 89 90 90 89 90 88 81 78 78 74 70 69 69 67 62 61 62 63 64 64 64 65 64 62 58 54 53 52 50 47 44 39 29 23 24 26 26 26 24 24 23 19 20 20 20 24 28 25 22 20 19 20 19 18 18 18 18 18 18 18 18 18 18 17 15 14 14
94 95 97 98 97 97 100 102 102 102 102 102 99 98 98 99 98 97 93 90 90 91 93 96 93 86 82 80 77 75 73 72 71 67 62 61 62 63 63 63 62 61 60 59 58 57 56 55 52 50 46 40 34 33 33 31 29 26 26 26 22 21 21 20 25 29 27 25 24 21 18 18 18 18 17 18 18 17 18 18 19 21 20 17 16 16
91 92 95 97 95 96 101 103 102 100 100 100 98 98 100 102 102 100 96 94 94 95 99 100 96 90 87 83 79 79 78 76 74 71 67 65 64 64 64 63 62 60 59 57 57 57 57 56 55 52 49 45 41 37 35 31 27 25 27 27 24 23 23 23 28 32 30 30 29 25 20 16 16 17 17 17 18 18 18 18 19 22 23 20 19 18
86 88 92 95 94 94 97 100 99 99 98 99 100 101 103 105 104 102 99 98 97 98 101 100 95 91 89 87 83 81 80 78 75 72 70 68 66 65 65 64 62 60 59 57 56 55 55 54 54 53 51 46 40 36 34 30 25 24 27 28 27 25 25 26 30 32 31 31 31 28 22 17 14 14 16 17 17 18 19 18 20 23 24 22 21 20
88 90 92 93 93 92 95 97 98 99 99 100 102 104 107 108 106 102 99 97 96 97 98 95 92 90 90 88 86 84 82 79 77 75 73 70 68 67 65 64 63 61 58 56 54 54 53 52 52 54 53 49 41 36 32 30 29 30 32 33 30 25 25 29 33 32 30 29 29 27 22 17 13 12 14 16 17 19 20 20 20 23 26 25 23 22
92 92 91 91 91 91 94 97 99 100 101 101 102 105 107 108 108 104 100 97 96 97 98 95 91 90 89 88 87 86 83 80 79 78 75 73 71 69 67 66 64 62 60 57 54 52 51 50 51 53 54 53 47 40 35 35 35 35 36 36 33 29 30 33 33 32 30 28 26 22 18 14 12 11 13 16 18 19 21 22 22 24 27 27 26 25
90 90 89 89 89 89 92 95 97 99 100 101 103 106 106 106 106 103 101 100 99 97 97 94 92 91 90 91 91 89 86 83 80 78 77 76 74 72 70 69 67 65 63 61 58 55 52 50 50 51 52 51 46 40 38 39 38 38 38 40 39 37 37 36 33 31 32 30 25 20 16 14 13 12 13 16 19 21 23 24 24 25 27 30 29 27
91 91 91 91 91 91 93 96 96 97 99 100 105 109 108 106 105 102 103 104 102 99 96 92 90 91 92 93 93 92 91 88 84 81 79 79 78 76 73 71 70 68 66 64 62 59 55 52 50 51 52 50 45 39 36 36 39 40 40 42 43 41 40 39 35 33 32 30 25 21 19 18 16 15 16 18 20 23 25 25 25 26 28 30 31 30
93 94 92 91 91 91 93 96 97 98 99 100 105 107 103 102 103 104 106 105 101 99 97 94 92 91 90 91 93 93 93 92 89 86 83 81 80 79 77 75 73 71 69 67 65 62 59 56 53 52 53 55 53 47 40 37 38 40 40 41 42 40 40 41 39 37 33 29 25 22 22 22 22 23 23 21 21 24 27 27 26 26 28 30 32 32
94 94 92 91 92 90 90 93 95 97 99 101 104 103 98 98 101 104 106 104 101 100 98 97 97 94 92 93 94 93 94 94 94 91 89 86 82 80 80 78 76 74 72 70 68 65 63 60 57 55 55 57 59 58 54 49 44 40 37 39 40 39 40 41 42 39 34 30 27 26 26 27 28 28 28 26 25 26 26 27 26 27 28 31 33 34
91 92 92 93 93 92 92 93 95 96 98 100 103 100 97 98 101 104 106 105 104 104 103 102 101 98 96 95 95 95 96 97 97 95 93 91 87 84 82 81 79 78 75 73 71 69 67 64 62 59 58 58 60 62 64 62 58 49 41 38 39 41 42 42 42 41 38 35 33 30 29 31 31 32 31 31 32 33 30 28 28 28 29 31 33 34
85 88 91 93 93 93 94 95 96 95 95 98 100 99 98 100 102 105 107 107 106 106 106 105 104 102 99 97 96 96 98 97 97 97 96 94 92 89 86 84 82 80 78 76 74 72 70 68 66 63 61 60 60 62 65 65 64 60 53 45 42 44 45 45 44 43 41 40 39 35 34 34 34 34 36 36 37 37 36 34 35 35 33 31 32 33
78 83 88 90 92 94 96 96 95 93 94 98 101 100 99 100 102 105 106 105 104 105 106 106 106 104 102 102 99 98 98 98 98 98 97 96 95 93 91 88 85 83 81 79 77 75 74 71 69 67 65 63 62 62 64 65 63 62 60 56 51 48 47 47 48 47 45 44 43 41 39 39 39 39 40 40 40 40 39 39 41 41 38 34 32 33
72 77 82 85 89 94 95 93 93 93 96 99 100 99 98 99 100 103 104 102 102 103 106 107 108 107 106 106 104 102 101 100 99 99 99 98 96 95 94 91 89 86 84 82 80 79 77 75 73 71 68 66 65 64 64 65 64 62 61 60 59 55 50 46 47 47 47 47 47 46 45 44 44 44 44 43 43 43 43 44 44 43 41 37 32 30
67 72 76 80 86 91 91 90 92 96 98 98 96 96 98 100 101 103 104 102 101 103 106 108 110 110 109 108 107 105 104 102 100 99 99 99 97 96 95 93 91 89 87 85 83 81 80 78 77 75 72 70 68 66 65 65 65 64 62 61 62 62 57 51 47 45 45 46 48 50 51 50 49 49 47 46 45 45 46 46 45 44 42 40 35 31
63 67 72 76 82 86 87 89 93 97 97 96 95 96 98 101 102 103 104 104 104 105 107 109 110 111 111 111 109 107 106 104 102 100 99 97 96 95 94 93 93 91 90 88 86 84 83 82 80 78 77 74 72 69 68 67 66 66 65 64 64 65 65 62 56 50 46 44 45 48 52 53 52 52 50 48 46 46 47 46 44 44 43 42 39 36
61 64 68 72 77 82 85 88 92 95 96 95 94 95 97 100 102 103 104 105 106 107 107 108 110 111 112 113 111 109 108 106 105 103 101 98 96 94 94 93 93 92 92 90 89 88 86 85 83 82 80 78 76 73 71 69 68 67 66 67 67 67 68 68 65 61 56 51 47 45 47 52 55 54 53 51 49 47 48 47 45 43 44 44 43 41
60 62 65 69 73 77 81 85 88 92 95 94 93 94 96 98 101 104 105 105 106 108 109 109 110 112 114 113 112 110 109 109 108 106 103 100 98 96 94 94 93 93 93 92 92 91 90 88 87 85 84 82 80 78 75 72 70 69 68 68 69 69 69 69 68 66 64 61 56 50 46 49 55 58 57 54 51 49 48 48 47 45 45 47 46 44
59 62 64 66 69 74 78 81 85 90 92 92 93 95 97 99 101 103 105 106 107 108 109 110 111 113 114 113 112 111 111 112 112 108 104 103 101 98 95 95 95 95 95 94 94 94 93 91 90 88 87 86 84 81 79 76 74 72 70 69 69 70 71 71 70 68 67 66 63 59 53 51 54 59 60 57 53 51 49 49 49 48 47 47 47 46
58 61 63 65 68 71 75 79 83 87 89 90 92 95 98 100 102 103 106 108 107 106 108 111 113 114 114 112 112 112 113 114 114 110 106 103 102 101 100 99 98 98 97 96 96 95 94 93 93 92 90 89 87 85 83 81 78 76 73 71 71 71 72 72 72 71 69 68 67 65 62 58 56 58 62 60 56 54 53 52 51 49 48 47 46 46
57 60 63 65 67 70 73 78 83 86 87 88 90 94 97 100 101 102 105 107 106 105 107 111 114 114 113 112 113 114 115 115 114 111 108 106 105 105 105 103 102 101 100 98 97 96 95 95 95 94 93 91 90 88 87 85 83 80 77 75 73 72 72 72 73 73 72 71 70 68 66 64 61 60 62 62 60 58 56 54 52 51 50 49 47 46
57 60 62 65 67 70 73 77 81 84 84 85 88 92 95 97 99 102 104 105 106 106 107 111 113 114 112 113 114 116 116 116 114 113 112 111 110 109 108 106 105 104 103 102 100 98 98 98 97 96 95 94 93 92 90 89 87 85 82 79 77 75 74 73 73 74 75 74 73 71 69 67 66 64 63 64 64 62 59 56 53 52 52 50 47 46
56 59 62 65 67 70 73 76 78 80 81 84 88 91 92 94 98 101 103 105 107 107 108 111 114 115 114 113 114 116 117 117 116 116 115 114 113 112 111 109 108 107 106 104 103 102 101 101 99 98 97 96 96 95 94 92 91 88 86 84 81 79 77 75 74 75 76 76 76 75 73 71 69 68 66 66 67 67 63 59 56 54 54 53 50 48
55 58 61 65 67 70 73 75 76 77 78 82 86 89 91 93 96 99 102 105 107 108 108 110 113 115 115 114 114 116 118 119 118 117 116 115 115 114 113 112 111 110 109 107 106 105 104 104 102 100 99 98 98 97 97 95 94 92 90 88 86 83 80 79 77 76 77 77 78 78 76 75 73 72 70 68 69 71 69 64 60 57 53 54 55 54
52 57 60 64 66 69 72 74 75 76 77 80 83 86 88 92 96 98 99 102 104 106 108 109 112 114 115 116 115 116 118 120 120 119 117 116 116 116 115 114 114 113 112 111 109 108 107 107 105 103 102 101 100 99 98 97 96 95 93 91 89 87 84 82 81 80 78 78 79 80 80 79 77 75 74 71 70 72 72 67 65 62 55 51 54 57
48 53 58 62 65 68 71 74 75 76 76 78 81 83 86 90 94 96 98 99 101 104 107 109 111 113 115 116 117 117 118 120 121 120 119 117 117 117 117 116 116 116 115 114 112 111 110 109 108 107 105 104 102 101 100 99 98 97 95 94 92 90 88 86 84 83 81 80 81 82 82 82 80 79 78 75 73 73 72 68 67 67 64 57 55 56
45 50 55 59 63 67 71 73 74 75 76 78 80 83 85 88 91 93 95 97 99 101 104 107 110 112 114 116 117 118 119 120 121 122 121 119 119 119 119 118 118 118 118 117 116 115 113 113 112 110 109 107 106 104 103 101 100 99 97 96 94 93 91 90 88 86 85 83 83 83 84 85 84 83 81 80 78 75 74 71 69 70 71 67 60 56
44 48 51 54 59 64 69 71 72 74 76 77 80 82 84 86 88 91 93 96 97 100 102 105 108 110 112 114 116 118 120 121 122 122 122 122 121 120 120 120 120 120 120 120 119 118 117 116 115 114 113 111 109 108 106 104 103 101 100 98 97 95 93 92 91 89 88 86 86 86 86 87 87 86 85 84 82 80 78 75 72 71 72 70 64 59
44 47 49 51 55 60 65 68 69 72 75 77 78 81 83 85 87 89 91 93 96 98 101 103 105 108 110 112 115 117 119 121 122 122 123 123 123 122 122 122 121 121 121 121 122 121 120 119 118 117 116 114 113 111 109 108 107 105 103 101 100 98 96 95 93 92 91 89 88 88 88 89 89 89 88 88 86 85 84 81 76 74 74 72 68 65
44 47 48 50 53 57 61 64 67 71 74 76 77 80 82 85 87 88 89 91 94 97 100 102 104 106 108 110 112 114 117 119 120 121 122 123 124 124 124 123 122 122 122 122 123 123 122 122 121 120 119 118 116 114 113 111 110 109 107 105 103 101 99 98 96 95 94 92 91 90 90 90 91 91 91 91 90 89 88 87 83 80 77 74 72 72
Wind_Direction
221 220 218 217 217 217 218 217 217 218 218 219 220 221 221 220 219 217 216 216 216 215 215 216 218 220 223 229 234 234 229 226 227 228 234 237 241 258 273 264 251 259 273 280 287 292 296 299 305 310 315 322 326 330 334 337 340 340 344 350 352 356 357 359 11 33 42 26 18 29 32 30 35 46 50 50 47 46 48 52 54 57 61 64 67 68
221 221 219 218 217 217 218 217 218 218 217 218 220 222 223 223 222 221 219 218 217 217 216 217 220 221 222 226 230 232 230 226 228 228 229 233 243 259 266 247 243 263 272 274 286 292 293 295 297 302 306 312 317 323 327 329 333 334 337 342 346 349 350 350 355 3 32 39 27 30 32 30 33 43 49 51 48 45 47 51 55 57 59 63 66 68
221 221 220 220 219 218 218 217 219 219 217 217 219 221 223 223 223 222 221 221 220 220 218 218 220 222 223 226 229 232 230 227 228 227 228 232 238 246 245 238 246 261 263 269 286 287 286 291 292 295 300 304 310 314 316 319 324 328 331 335 337 340 342 340 341 346 356 35 39 36 34 33 35 40 45 50 50 46 45 50 56 59 60 63 66 68
221 221 220 220 219 218 218 217 219 219 218 217 218 219 221 222 222 222 222 223 222 222 221 219 221 222 224 226 228 231 232 231 231 230 230 230 234 240 237 236 245 251 254 271 281 276 277 286 289 292 294 296 300 303 304 308 316 323 327 328 327 330 332 331 330 334 337 8 45 40 39 36 34 36 40 46 51 49 45 47 54 61 63 65 68 70
220 221 221 220 220 219 218 217 219 218 217 218 219 219 220 221 222 222 222 223 223 223 222 221 221 222 223 225 227 231 234 234 233 232 233 234 239 242 236 234 238 243 257 273 274 271 274 280 286 289 290 290 292 296 297 298 307 317 323 324 321 320 322 324 323 324 330 349 45 42 44 39 32 31 35 43 51 51 47 47 53 62 67 68 69 72
219 220 221 221 220 220 219 218 218 217 216 218 219 220 220 220 221 221 221 222 223 224 224 222 222 222 223 226 227 229 231 232 232 231 233 236 236 233 229 226 231 247 264 269 269 274 274 274 280 284 286 288 290 293 292 290 299 310 317 319 316 314 314 317 316 315 323 343 53 48 46 39 29 27 27 35 50 53 51 50 53 62 70 75 74 75
219 220 221 221 220 220 219 219 219 216 216 219 219 219 221 220 220 221 221 222 223 224 225 224 224 223 223 226 227 228 228 229 232 232 232 234 230 226 225 223 233 251 260 265 272 275 270 270 278 280 281 284 287 291 287 283 292 302 309 313 312 308 307 310 310 310 318 332 62 82 18 23 24 23 21 24 40 51 55 52 52 60 70 79 81 79
219 220 220 220 220 220 219 220 220 218 218 219 219 219 221 220 220 221 220 221 222 224 225 226 226 226 225 226 227 229 231 231 234 234 231 229 225 221 223 228 240 253 261 266 271 269 265 271 279 279 278 278 283 287 282 279 287 295 299 305 306 304 300 301 302 305 312 319 340 178 275 334 7 16 19 21 26 40 52 56 55 58 68 80 85 84
219 219 219 220 220 220 220 220 219 218 219 220 218 219 220 220 220 220 220 221 222 223 225 226 228 229 228 227 227 228 231 232 232 234 232 229 227 227 231 238 245 255 262 263 264 264 264 271 279 278 275 274 279 284 280 278 286 290 292 294 296 296 293 292 294 296 305 308 290 217 239 267 322 359 14 21 24 31 43 55 58 57 64 77 87 93
219 219 219 219 219 219 219 219 218 217 219 220 220 219 219 219 219 220 219 220 221 222 224 225 227 229 229 230 228 227 230 231 231 232 234 233 233 234 238 241 242 247 250 253 262 266 265 271 277 275 274 274 277 281 278 278 284 286 285 287 290 289 286 285 287 288 295 299 284 244 241 246 259 313 354 14 22 28 36 49 59 59 61 74 91 96
220 219 218 218 219 219 219 219 218 218 219 220 220 220 219 219 220 221 220 220 221 221 222 223 224 226 227 229 230 229 230 231 231 233 235 235 235 236 238 240 241 243 243 253 266 266 265 272 273 269 271 276 278 277 273 275 279 280 282 287 289 286 281 281 281 280 281 287 278 257 250 245 241 257 301 345 11 24 33 42 57 64 65 75 95 104
220 220 218 218 219 219 219 220 219 218 220 220 220 219 219 219 220 221 220 221 222 222 222 223 223 225 226 227 229 230 231 231 231 233 235 236 237 238 238 239 240 242 246 256 263 261 263 267 264 260 266 275 278 272 267 271 273 275 283 287 288 284 279 279 277 273 266 268 270 259 254 250 241 239 254 299 344 12 26 33 47 67 72 85 110 131
220 220 218 218 219 218 219 219 218 219 220 220 220 220 219 219 220 220 220 220 221 221 222 223 223 224 225 226 226 228 230 231 232 233 235 236 237 238 238 239 242 245 248 251 251 253 258 259 256 256 263 274 277 267 265 274 275 279 283 283 285 283 279 278 277 271 258 251 256 255 255 255 248 240 242 258 291 330 15 26 26 53 88 109 153 173
219 219 218 217 219 219 218 218 218 219 221 221 220 220 219 219 220 220 220 220 221 220 220 221 222 222 223 224 225 226 228 230 232 233 235 236 237 237 238 241 244 246 247 244 242 247 254 255 256 260 267 272 269 261 264 274 277 281 282 279 280 281 278 278 277 272 257 243 245 249 253 257 253 245 243 247 258 277 314 19 8 336 217 185 194 201
218 218 217 217 218 219 218 218 218 219 221 221 220 220 219 218 218 219 220 220 220 220 220 221 222 221 221 222 223 225 226 227 230 231 233 235 236 237 238 239 240 239 239 237 236 239 245 250 256 263 269 267 260 256 263 271 274 278 279 276 275 276 275 274 275 272 260 242 237 243 250 255 254 248 245 246 248 255 261 292 344 309 259 223 218 216
218 218 218 217 218 218 217 217 217 218 219 220 220 220 219 218 218 218 219 219 220 220 220 222 223 221 221 222 222 223 224 224 226 228 229 231 232 233 233 233 232 230 227 226 228 229 233 243 258 266 266 260 254 256 264 270 272 274 274 271 268 269 268 268 271 271 264 247 236 238 246 253 255 249 246 248 247 246 251 253 281 290 264 233 224 226
217 218 218 217 217 218 217 217 217 217 218 219 219 219 219 218 218 218 219 219 220 220 221 223 224 222 222 222 222 224 224 224 224 225 226 227 228 229 229 229 228 226 223 224 225 224 231 246 262 265 259 251 251 258 265 267 267 269 266 263 265 263 260 264 268 269 265 252 238 235 242 251 255 251 247 249 249 245 246 246 253 269 262 241 227 228
217 218 218 216 216 217 217 217 217 216 217 218 218 218 218 217 218 218 218 220 220 221 222 224 224 223 223 223 223 224 225 225 225 225 226 227 227 228 228 229 229 228 229 232 233 234 241 251 256 255 250 246 252 259 261 260 260 262 260 258 262 259 258 265 268 267 264 253 242 237 238 245 252 252 248 249 252 249 245 242 240 253 260 247 231 228
217 218 218 216 216 217 217 218 217 216 217 218 217 218 218 218 219 219 219 220 221 221 223 224 223 223 223 223 223 223 223 224 225 226 226 227 228 229 229 229 230 230 231 233 235 238 243 247 246 247 248 250 255 257 254 254 257 259 259 261 261 256 260 270 273 271 266 256 249 243 238 241 247 252 252 251 252 251 248 243 235 239 252 249 236 228
218 219 218 216 216 218 219 219 218 217 218 218 218 218 219 220 220 220 219 220 221 222 223 224 223 222 222 222 223 223 223 224 225 227 227 226 226 228 229 230 231 232 232 233 236 240 242 243 241 242 246 251 255 254 250 250 255 252 245 249 257 256 260 268 271 272 269 262 255 247 241 241 244 252 258 256 253 250 249 246 236 231 239 245 240 230
220 219 218 216 216 218 219 219 219 218 218 217 216 216 217 219 219 219 219 219 220 221 221 223 223 222 222 223 223 223 223 224 225 226 228 227 226 227 228 230 231 232 232 232 234 236 237 238 235 233 239 247 248 249 247 245 248 239 229 234 243 246 255 266 269 268 267 262 256 249 244 242 244 251 259 262 258 250 248 248 239 228 228 235 238 232
220 219 216 215 215 217 217 218 218 218 219 218 216 215 216 218 219 219 218 218 220 221 221 222 222 220 221 222 222 222 223 224 224 225 226 226 226 227 227 229 231 231 231 230 230 231 232 234 232 233 242 246 240 243 246 243 242 236 229 229 222 217 232 250 258 262 261 255 250 247 243 240 242 248 256 263 263 254 247 247 240 228 221 225 231 230
218 218 216 214 214 215 216 217 217 218 219 219 217 217 217 218 219 219 218 217 218 220 222 223 222 219 219 220 221 221 222 224 225 226 226 226 227 227 227 228 229 229 229 229 230 231 232 234 235 237 242 243 240 245 246 240 238 234 227 226 223 216 216 224 241 251 249 242 238 234 231 233 237 245 254 261 265 259 248 244 240 229 220 220 225 227
218 218 217 215 214 215 216 217 217 218 219 219 218 218 219 219 219 218 217 217 217 219 221 222 222 221 220 220 220 220 221 223 225 226 227 228 228 229 229 229 230 230 229 228 229 230 231 232 234 236 236 237 238 240 238 232 232 230 221 219 226 229 224 225 238 244 242 241 236 225 223 229 232 239 251 260 267 265 253 244 238 230 222 218 221 224
220 220 219 217 214 215 217 217 217 217 218 219 218 217 219 220 221 220 219 218 218 219 222 222 222 222 222 222 222 222 222 223 225 225 226 228 229 230 230 231 232 232 230 229 228 229 229 228 229 231 231 230 228 227 227 226 223 221 219 220 224 227 230 233 238 239 240 243 237 224 223 230 230 236 248 259 269 270 261 250 239 231 224 219 219 222
219 219 219 218 216 215 215 216 216 216 216 217 218 218 218 220 220 220 221 221 221 222 224 225 224 224 224 224 224 225 224 224 225 225 226 228 229 231 232 232 233 233 232 230 227 227 227 227 226 226 226 222 219 219 223 223 219 214 215 220 221 221 226 232 235 234 232 232 228 222 223 231 238 246 250 256 268 273 267 257 245 234 227 221 219 222
218 218 219 219 217 216 215 215 216 216 215 216 217 218 219 220 220 219 219 220 221 223 225 225 223 223 224 224 225 226 226 226 225 225 225 227 228 230 231 232 233 234 233 231 228 225 225 225 224 224 223 220 218 222 223 222 221 218 216 218 217 215 219 227 231 227 217 213 215 218 221 231 251 268 265 260 266 272 272 264 252 240 231 224 220 221
218 219 219 219 218 217 216 216 216 216 215 216 217 218 218 220 221 221 219 219 220 222 224 225 224 223 223 223 223 224 225 225 225 225 225 226 227 228 229 231 232 233 233 233 231 227 224 223 222 222 222 219 216 219 222 222 221 219 217 217 215 214 216 219 219 213 206 205 208 210 213 224 244 264 273 273 271 271 273 270 259 247 236 228 223 221
217 218 218 219 219 217 216 216 216 216 216 216 218 219 218 218 219 219 220 220 220 221 222 223 224 225 225 225 224 223 223 224 224 225 225 226 227 227 227 229 230 232 233 233 233 230 226 222 220 220 220 216 211 211 215 218 219 217 214 212 213 215 215 212 210 207 205 206 208 205 206 211 212 221 244 265 272 272 273 272 265 255 244 235 229 224
217 217 218 218 219 218 217 217 216 216 215 216 218 219 219 220 220 220 220 220 220 221 221 221 222 223 225 227 227 225 225 224 223 223 224 224 225 226 227 228 229 231 232 233 233 232 230 224 219 217 217 216 213 211 209 210 215 216 213 211 213 215 214 210 209 211 210 208 207 203 203 203 199 202 217 238 256 266 270 269 266 259 250 242 236 230
217 217 217 218 219 219 219 219 218 217 216 216 218 218 217 219 220 222 222 221 220 221 221 221 221 220 221 224 226 226 226 226 225 224 224 224 224 225 226 227 228 230 231 233 233 233 232 229 223 218 215 215 215 215 215 216 218 217 213 213 216 217 214 210 210 214 215 211 207 202 201 204 204 203 206 217 230 241 251 259 262 260 253 246 241 237
216 217 217 218 219 219 219 219 220 219 218 218 217 216 215 217 219 221 222 221 220 221 221 221 222 221 220 223 225 225 225 226 226 225 225 225 224 224 225 226 227 229 230 231 233 233 233 232 228 223 217 215 215 216 219 222 225 223 216 212 215 218 217 213 212 214 217 216 212 206 202 206 210 208 206 212 220 222 224 232 242 248 249 245 242 241
215 216 217 218 219 219 219 219 219 219 219 219 218 215 215 217 218 219 221 220 220 221 222 222 223 222 221 222 224 225 225 225 226 226 225 225 225 224 225 225 226 228 229 231 232 233 233 233 232 228 222 218 216 216 219 222 226 227 222 215 214 216 218 217 216 215 218 220 218 212 207 207 212 214 214 214 217 217 216 219 225 231 236 238 238 239
214 216 217 217 218 220 220 220 220 220 220 220 218 215 215 217 218 219 220 221 221 222 223 223 224 223 222 222 223 225 225 225 226 226 225 225 225 225 225 226 226 227 229 230 231 233 234 234 233 232 228 223 218 217 219 221 224 227 225 220 217 215 217 218 219 219 221 222 220 217 214 211 212 216 219 219 218 216 216 220 224 226 228 230 231 232
214 215 216 216 218 220 220 220 220 221 221 221 219 216 215 217 219 220 219 219 220 221 223 223 224 224 223 223 223 225 226 226 226 227 227 226 226 226 226 226 226 227 228 229 231 232 233 234 234 234 232 228 223 219 218 220 222 225 225 222 219 216 214 215 216 218 220 221 219 217 217 217 216 217 219 221 222 220 218 221 225 226 226 228 230 232
215 215 216 216 218 219 219 220 221 222 221 221 220 218 217 218 219 219 219 218 218 220 221 223 223 224 224 224 224 225 226 227 227 228 228 228 227 227 227 227 227 227 228 229 230 231 233 234 235 235 234 232 229 224 221 220 221 223 223 223 222 219 217 215 216 217 218 219 220 219 218 219 220 220 221 222 224 225 224 224 226 228 229 231 234 236
216 216 216 216 218 219 218 218 221 222 222 221 220 219 219 219 220 220 219 218 218 219 220 222 223 224 225 225 224 225 226 227 227 228 229 229 229 228 228 228 228 228 228 228 229 230 232 233 234 235 235 235 233 230 226 222 221 221 222 223 224 223 222 221 222 222 220 219 222 222 221 222 223 222 223 223 224 225 227 229 231 232 233 234 235 237
218 217 217 217 218 219 218 218 220 222 222 221 221 220 220 220 221 221 220 219 218 218 219 221 223 224 225 225 225 225 226 226 227 228 229 230 230 230 230 230 229 229 229 229 229 230 231 232 233 234 235 236 235 234 231 227 224 222 221 221 223 225 225 225 226 228 226 223 223 223 223 224 224 223 223 224 224 225 227 231 234 235 235 235 236 236
219 219 219 219 219 220 220 219 220 222 221 220 220 221 221 222 222 222 221 220 219 219 219 220 222 223 224 225 225 225 226 227 227 227 228 230 230 230 230 230 230 230 230 230 230 230 230 231 232 233 234 236 236 236 235 232 228 225 223 221 222 224 226 227 228 229 229 227 225 224 223 224 224 223 223 224 225 225 227 230 234 236 237 237 237 238
221 221 221 220 220 221 221 221 221 222 222 221 220 220 222 222 223 223 222 221 220 220 220 220 222 223 224 225 225 225 226 227 228 227 227 228 230 230 230 230 230 230 230 230 230 231 231 231 232 233 234 235 236 237 237 235 233 230 227 224 222 223 225 227 228 228 229 229 227 226 225 224 223 223 224 224 224 224 226 229 234 237 239 240 240 240
223 223 222 222 222 222 222 222 222 223 223 221 220 220 221 222 223 223 223 222 220 221 221 221 222 223 223 224 225 225 226 227 228 227 227 228 229 229 229 229 229 230 230 230 230 231 231 231 232 233 234 235 236 237 237 237 236 234 231 228 225 223 224 226 227 228 229 229 229 227 226 226 225 224 225 225 223 222 224 228 232 236 239 240 241 241
224 224 224 223 223 223 223 224 223 223 222 222 221 221 222 222 223 224 224 223 222 222 223 223 222 223 223 223 224 225 226 227 228 228 226 226 227 228 229 228 229 230 230 230 231 231 231 232 232 233 233 234 235 236 237 238 238 237 235 232 229 226 225 224 226 227 228 229 230 228 226 226 227 225 225 224 223 221 223 226 230 234 236 238 240 240
226 225 225 225 225 225 225 226 226 224 223 223 223 223 223 223 223 223 224 224 223 222 223 224 224 223 223 223 224 225 226 227 227 227 227 226 226 228 229 229 229 230 230 230 230 231 231 232 232 232 232 233 234 235 236 237 238 237 237 235 233 230 227 226 225 225 227 228 229 229 228 226 227 227 226 224 223 222 222 224 228 232 233 235 237 238
227 227 226 226 226 226 226 227 228 227 225 224 224 224 224 225 225 224 224 224 224 223 223 225 225 224 223 223 224 225 226 227 227 227 227 226 226 227 229 229 229 229 230 230 230 231 231 232 232 232 232 232 233 234 234 235 236 237 237 237 235 233 231 228 226 225 225 226 227 228 229 227 227 228 227 225 224 224 223 224 227 232 233 234 236 236
228 228 227 227 227 227 228 228 228 228 227 226 226 226 225 226 226 226 225 225 225 224 224 225 226 225 224 223 224 226 227 227 227 227 227 227 227 227 228 229 230 230 230 230 230 231 231 232 232 232 232 232 232 233 234 234 235 235 236 236 236 235 233 231 229 227 226 226 226 227 228 228 227 228 228 227 225 225 225 226 228 231 233 235 237 237
229 228 228 229 229 229 229 230 229 229 228 227 228 227 227 227 228 227 227 226 227 226 225 225 226 227 226 225 224 225 227 228 228 227 227 227 227 227 228 228 230 230 231 231 231 231 231 232 232 232 232 232 233 233 233 234 234 234 235 235 235 235 234 233 231 229 227 226 225 225 226 227 227 227 227 228 226 224 225 227 228 230 231 234 237 236
230 229 229 229 230 230 230 230 231 230 229 228 229 228 228 228 229 229 228 228 228 228 227 227 227 227 227 226 225 226 227 228 229 228 227 227 228 228 228 228 229 230 231 231 231 231 232 232 233 233 233 233 233 233 234 234 234 234 235 235 235 235 234 234 233 231 228 226 225 225 225 226 226 226 226 227 226 224 223 225 226 227 228 230 232 233
233 231 230 229 230 231 231 231 231 231 230 230 230 229 229 229 229 230 230 229 229 229 229 228 228 228 228 228 227 227 227 228 229 230 229 228 228 229 229 228 229 230 231 231 231 231 232 232 233 233 233 233 233 233 234 234 235 235 235 235 235 235 234 234 233 232 230 228 226 225 225 225 225 226 226 226 226 224 223 223 225 226 227 228 230 231
237 235 233 231 231 232 233 232 232 232 232 231 231 231 231 230 230 230 230 230 230 230 230 230 229 229 229 229 229 229 228 228 229 230 230 229 229 229 229 229 229 230 231 231 232 232 232 232 233 233 234 234 234 234 234 234 235 235 235 235 235 235 234 234 234 233 232 230 227 226 225 225 225 225 226 226 226 225 223 222 223 226 226 227 227 227
237 238 236 233 232 232 233 234 233 233 233 232 232 232 232 232 232 231 231 231 231 230 230 231 231 230 230 230 230 230 230 230 230 230 231 231 230 230 230 230 230 230 231 231 232 233 233 233 233 234 234 234 234 234 234 234 234 235 235 235 235 235 235 234 234 234 233 231 229 227 226 225 225 225 225 226 226 225 225 223 223 224 225 225 225 225
236 237 237 236 234 233 233 233 233 233 233 233 232 233 233 233 233 232 232 232 232 231 231 231 231 231 231 231 231 231 231 232 232 231 232 232 232 232 231 231 231 231 231 232 232 233 234 234 234 234 234 235 235 235 235 234 234 235 235 235 235 235 235 234 234 234 233 233 231 228 226 226 225 225 225 226 226 226 226 225 224 224 225 224 224 224
Height
10901 10907 10912 10917 10920 10924 10927 10934 10937 10938 10944 10951 10956 10959 10963 10968 10973 10977 10981 10983 10987 10990 10993 10996 10998 11002 11005 11005 11005 11008 11013 11015 11017 11018 11019 11022 11023 11022 11022 11023 11023 11025 11027 11029 11030 11032 11034 11035 11037 11039 11040 11040 11040 11040 11040 11040 11040 11040 11040 11039 11038 11037 11036 11035 11034 11034 11033 11033 11033 11032 11031 11031 11030 11029 11028 11027 11026 11025 11025 11024 11023 11022 11021 11020 11018 11017
10894 10901 10906 10909 10912 10915 10919 10925 10929 10931 10940 10948 10953 10957 10960 10965 10969 10973 10977 10980 10983 10986 10989 10992 10995 10998 11000 11002 11002 11005 11010 11012 11014 11016 11017 11020 11022 11022 11021 11021 11022 11023 11025 11027 11029 11031 11032 11034 11035 11037 11039 11039 11040 11040 11040 11040 11040 11040 11040 11040 11040 11038 11037 11036 11036 11035 11035 11035 11034 11034 11033 11033 11032 11032 11030 11029 11029 11028 11027 11026 11025 11024 11023 11022 11021 11019
10887 10893 10898 10900 10904 10908 10913 10920 10923 10927 10936 10944 10948 10951 10954 10958 10962 10967 10973 10976 10980 10983 10986 10989 10992 10994 10996 10998 10999 11002 11006 11009 11011 11014 11017 11020 11022 11021 11020 11020 11021 11022 11024 11026 11028 11029 11031 11032 11034 11035 11037 11038 11039 11039 11039 11039 11039 11040 11040 11041 11041 11040 11038 11037 11037 11036 11036 11036 11036 11036 11036 11035 11034 11034 11032 11031 11031 11030 11029 11029 11027 11027 11026 11024 11023 11022
10880 10883 10887 10890 10895 10901 10908 10914 10916 10922 10934 10939 10940 10942 10945 10950 10955 10961 10966 10970 10975 10978 10981 10985 10987 10990 10992 10994 10996 10998 11001 11005 11009 11013 11016 11018 11018 11017 11018 11018 11020 11022 11023 11024 11026 11028 11029 11031 11032 11034 11035 11037 11038 11039 11039 11039 11039 11040 11040 11041 11041 11041 11039 11038 11037 11037 11037 11037 11037 11037 11037 11037 11036 11035 11034 11033 11033 11032 11031 11031 11030 11029 11028 11027 11026 11025
10870 10873 10877 10881 10888 10895 10902 10908 10910 10918 10929 10931 10931 10935 10939 10944 10949 10955 10961 10965 10970 10973 10976 10980 10982 10985 10987 10990 10993 10995 10998 11001 11005 11010 11013 11013 11014 11015 11015 11017 11019 11021 11022 11023 11025 11026 11028 11029 11031 11032 11033 11035 11036 11038 11038 11038 11038 11039 11040 11041 11041 11041 11040 11039 11038 11038 11037 11038 11038 11038 11038 11038 11038 11037 11036 11035 11034 11034 11034 11033 11032 11031 11031 11030 11029 11028
10860 10864 10868 10873 10881 10889 10896 10901 10903 10913 10922 10921 10924 10930 10933 10937 10943 10950 10955 10960 10964 10967 10970 10973 10976 10980 10983 10986 10989 10992 10995 10998 11001 11005 11008 11009 11012 11013 11013 11015 11018 11020 11021 11022 11023 11025 11026 11028 11029 11030 11032 11033 11035 11036 11037 11037 11037 11038 11039 11040 11041 11041 11040 11039 11039 11038 11038 11038 11039 11039 11039 11039 11039 11038 11038 11037 11036 11036 11035 11035 11034 11033 11033 11032 11031 11030
10852 10856 10860 10866 10875 10883 10889 10892 10898 10911 10916 10914 10918 10922 10923 10930 10938 10944 10950 10955 10958 10962 10965 10968 10972 10976 10980 10982 10984 10988 10992 10995 10998 11001 11004 11007 11009 11011 11012 11015 11017 11018 11020 11021 11021 11023 11024 11025 11027 11029 11030 11031 11033 11035 11036 11036 11036 11037 11038 11039 11040 11040 11040 11040 11039 11038 11038 11039 11039 11040 11040 11040 11040 11040 11039 11039 11038 11037 11037 11036 11036 11035 11035 11034 11034 11033
10845 10846 10852 10860 10867 10874 10881 10887 10897 10908 10907 10905 10911 10915 10917 10926 10934 10938 10945 10950 10952 10956 10960 10965 10968 10971 10975 10978 10980 10984 10988 10992 10994 10997 11001 11003 11004 11008 11011 11014 11017 11017 11017 11019 11019 11021 11023 11024 11025 11027 11028 11030 11031 11033 11034 11035 11035 11036 11037 11038 11039 11040 11040 11039 11039 11039 11039 11039 11039 11040 11040 11040 11041 11041 11040 11040 11039 11038 11038 11038 11037 11037 11037 11036 11036 11035
10833 10836 10845 10853 10859 10869 10877 10882 10892 10898 10896 10897 10904 10907 10912 10922 10928 10932 10939 10943 10946 10951 10957 10962 10964 10967 10971 10974 10977 10982 10985 10988 10991 10993 10996 10998 11001 11005 11009 11013 11017 11016 11015 11016 11017 11019 11021 11022 11023 11025 11027 11028 11030 11031 11032 11034 11034 11034 11035 11037 11038 11038 11038 11038 11039 11039 11039 11039 11039 11039 11040 11040 11041 11041 11041 11041 11040 11040 11039 11039 11038 11038 11038 11038 11037 11037
10821 10827 10836 10844 10853 10863 10868 10872 10881 10886 10886 10890 10896 10901 10908 10916 10920 10924 10931 10936 10941 10947 10953 10957 10959 10961 10967 10969 10973 10978 10981 10983 10988 10990 10992 10995 10998 11002 11005 11010 11012 11012 11012 11014 11015 11017 11019 11020 11022 11023 11025 11027 11028 11030 11031 11032 11033 11033 11034 11035 11036 11037 11037 11037 11038 11038 11038 11039 11039 11039 11039 11040 11040 11041 11041 11041 11041 11041 11040 11040 11039 11039 11039 11039 11039 11038
10811 10817 10829 10839 10848 10856 10857 10862 10871 10876 10877 10882 10889 10897 10904 10911 10915 10919 10926 10932 10936 10942 10946 10949 10952 10955 10960 10964 10968 10974 10976 10979 10983 10986 10988 10991 10994 10998 11002 11005 11008 11009 11010 11012 11013 11015 11017 11018 11020 11021 11023 11025 11026 11028 11029 11030 11031 11032 11033 11034 11035 11035 11036 11036 11036 11037 11038 11038 11038 11038 11038 11039 11040 11040 11041 11041 11041 11041 11041 11041 11040 11040 11040 11040 11039 11039
10801 10811 10826 10836 10841 10845 10848 10854 10864 10869 10871 10875 10882 10890 10897 10904 10908 10915 10924 10930 10933 10938 10940 10943 10947 10950 10953 10959 10965 10969 10970 10974 10978 10980 10983 10987 10991 10994 10998 11001 11005 11007 11009 11012 11014 11014 11015 11016 11018 11020 11021 11022 11024 11026 11027 11028 11029 11030 11031 11032 11033 11034 11034 11034 11035 11036 11037 11037 11038 11038 11038 11038 11039 11040 11040 11041 11041 11041 11042 11042 11041 11041 11040 11040 11040 11040
10795 10807 10820 10827 10829 10833 10838 10846 10856 10860 10862 10868 10877 10885 10892 10898 10904 10912 10920 10923 10926 10931 10934 10937 10940 10942 10946 10955 10962 10963 10966 10969 10972 10976 10980 10983 10986 10990 10994 10997 11001 11003 11006 11011 11012 11011 11012 11014 11016 11018 11019 11020 11022 11024 11025 11026 11027 11028 11029 11030 11031 11032 11032 11032 11033 11035 11036 11036 11037 11037 11037 11037 11038 11039 11040 11040 11041 11041 11042 11042 11042 11042 11041 11041 11041 11040
10786 10796 10806 10813 10816 10821 10829 10840 10850 10855 10856 10862 10872 10880 10885 10892 10901 10908 10912 10916 10919 10922 10925 10927 10928 10933 10941 10950 10955 10957 10960 10964 10967 10972 10976 10979 10983 10986 10990 10994 10996 10999 11001 11006 11008 11008 11009 11011 11012 11014 11016 11018 11020 11021 11022 11023 11024 11026 11027 11028 11029 11030 11030 11030 11031 11033 11034 11035 11035 11036 11036 11037 11038 11039 11039 11040 11041 11041 11042 11042 11042 11042 11042 11041 11041 11041
10774 10782 10793 10802 10805 10812 10824 10835 10843 10845 10847 10856 10866 10871 10877 10886 10894 10899 10904 10909 10911 10912 10916 10916 10919 10929 10937 10943 10948 10951 10956 10960 10963 10968 10971 10975 10979 10982 10986 10988 10991 10995 10998 11002 11006 11007 11008 11009 11010 11011 11013 11015 11017 11019 11019 11020 11022 11023 11025 11026 11026 11027 11028 11028 11029 11031 11032 11033 11033 11034 11034 11035 11037 11038 11039 11039 11040 11041 11041 11042 11042 11043 11042 11042 11042 11041
10766 10776 10786 10793 10794 10802 10816 10822 10827 10833 10839 10849 10856 10860 10870 10880 10885 10888 10893 10897 10899 10903 10908 10909 10915 10927 10932 10936 10943 10946 10950 10955 10959 10963 10967 10969 10972 10976 10980 10983 10986 10991 10995 10999 11002 11004 11006 11006 11008 11009 11010 11012 11014 11016 11017 11018 11019 11021 11022 11023 11024 11024 11025 11026 11027 11028 11030 11031 11031 11032 11033 11033 11035 11037 11038 11039 11039 11040 11041 11042 11043 11043 11043 11042 11042 11042
10759 10767 10771 10776 10783 10794 10806 10809 10815 10826 10831 10836 10844 10853 10865 10872 10874 10879 10883 10887 10892 10898 10902 10904 10912 10922 10926 10931 10938 10942 10946 10951 10954 10958 10961 10963 10966 10971 10975 10977 10980 10986 10990 10994 10997 11000 11002 11003 11005 11007 11008 11010 11011 11013 11014 11016 11017 11018 11019 11020 11021 11022 11023 11023 11024 11026 11028 11029 11029 11030 11030 11031 11033 11035 11036 11037 11038 11039 11041 11042 11042 11043 11043 11043 11043 11042
10751 10750 10751 10763 10775 10785 10793 10796 10805 10814 10817 10826 10839 10848 10854 10859 10862 10868 10874 10879 10885 10893 10896 10899 10908 10916 10920 10926 10932 10936 10941 10945 10949 10952 10955 10958 10961 10964 10969 10971 10975 10981 10986 10989 10992 10995 10998 11000 11003 11005 11006 11008 11009 11010 11012 11013 11014 11015 11016 11018 11019 11020 11021 11021 11022 11023 11025 11026 11027 11027 11028 11029 11030 11032 11034 11035 11036 11038 11040 11041 11042 11042 11043 11043 11043 11043
10733 10731 10739 10760 10773 10777 10782 10785 10794 10805 10810 10820 10832 10838 10845 10852 10856 10863 10870 10876 10883 10890 10891 10895 10905 10910 10913 10920 10924 10928 10934 10937 10941 10944 10946 10951 10955 10958 10962 10965 10970 10976 10981 10984 10988 10991 10994 10998 11001 11004 11005 11007 11008 11009 11010 11011 11012 11013 11014 11016 11018 11019 11020 11020 11020 11021 11023 11024 11025 11025 11026 11026 11028 11029 11031 11032 11034 11037 11038 11040 11041 11042 11042 11043 11043 11043
10720 10723 10739 10761 10768 10770 10775 10781 10792 10802 10806 10815 10826 10836 10843 10847 10852 10860 10867 10872 10878 10882 10885 10890 10896 10899 10905 10914 10917 10922 10927 10929 10932 10936 10938 10944 10950 10953 10956 10958 10963 10970 10974 10979 10983 10986 10990 10994 10999 11003 11005 11006 11006 11004 11005 11009 11011 11012 11013 11015 11019 11020 11019 11018 11019 11020 11021 11022 11023 11023 11024 11025 11026 11027 11028 11030 11032 11034 11036 11038 11039 11040 11041 11042 11043 11043
10714 10720 10737 10754 10756 10759 10768 10778 10788 10793 10796 10806 10819 10828 10833 10837 10842 10849 10856 10863 10867 10870 10877 10881 10884 10893 10902 10908 10911 10916 10920 10922 10925 10928 10932 10939 10944 10947 10950 10953 10958 10963 10968 10974 10978 10981 10985 10990 10996 11000 11000 11001 11000 10997 11000 11006 11009 11011 11012 11015 11020 11022 11019 11017 11018 11018 11019 11020 11020 11021 11022 11023 11024 11025 11026 11028 11030 11032 11033 11036 11037 11039 11039 11041 11042 11042
10701 10710 10725 10738 10744 10753 10763 10768 10773 10779 10785 10797 10809 10817 10823 10826 10830 10836 10845 10855 10859 10863 10868 10866 10870 10886 10895 10898 10903 10908 10911 10915 10918 10921 10926 10933 10938 10941 10945 10949 10952 10957 10963 10968 10972 10975 10980 10986 10991 10994 10995 10996 10995 10994 10997 11003 11007 11010 11012 11014 11016 11016 11015 11016 11018 11017 11016 11016 11017 11017 11019 11020 11022 11023 11024 11026 11027 11029 11031 11033 11035 11037 11037 11039 11040 11041
10689 10701 10713 10725 10734 10741 10746 10749 10759 10773 10782 10794 10806 10814 10816 10816 10819 10828 10839 10846 10849 10853 10855 10852 10860 10877 10883 10886 10894 10900 10903 10907 10910 10915 10922 10927 10931 10935 10939 10943 10948 10952 10958 10962 10966 10970 10976 10981 10984 10988 10991 10994 10994 10995 10998 11002 11006 11009 11011 11011 11011 11010 11010 11013 11016 11014 11012 11012 11012 11013 11014 11016 11018 11020 11022 11024 11026 11027 11029 11031 11033 11035 11036 11037 11038 11039
10690 10699 10707 10718 10727 10731 10735 10745 10759 10771 10779 10788 10800 10806 10806 10805 10807 10816 10825 10830 10835 10838 10836 10838 10852 10869 10876 10880 10886 10891 10895 10899 10903 10910 10917 10920 10925 10929 10933 10938 10943 10948 10953 10957 10961 10966 10971 10976 10979 10983 10987 10990 10992 10995 10998 11002 11005 11006 11008 11009 11010 11009 11009 11012 11014 11011 11010 11010 11011 11010 11010 11012 11014 11017 11019 11021 11024 11025 11027 11028 11030 11032 11034 11034 11036 11037
10692 10696 10701 10710 10719 10725 10734 10746 10755 10764 10771 10778 10787 10791 10791 10792 10797 10807 10815 10820 10826 10827 10825 10833 10850 10864 10871 10875 10881 10885 10889 10894 10900 10907 10911 10914 10919 10923 10927 10932 10937 10942 10948 10952 10957 10962 10966 10970 10974 10977 10981 10985 10988 10991 10995 10999 11003 11004 11004 11005 11006 11006 11007 11011 11012 11009 11008 11009 11010 11008 11007 11008 11011 11014 11016 11019 11021 11023 11025 11026 11028 11030 11031 11032 11033 11035
10678 10682 10688 10698 10708 10716 10726 10736 10742 10751 10759 10764 10770 10774 10775 10779 10787 10801 10813 10820 10826 10826 10825 10837 10852 10860 10865 10872 10878 10882 10886 10891 10897 10901 10905 10909 10914 10918 10923 10927 10931 10936 10941 10946 10952 10957 10961 10965 10968 10970 10974 10979 10984 10988 10990 10993 10995 10996 10996 10996 10999 11001 11005 11008 11007 11004 11004 11005 11007 11007 11006 11007 11009 11011 11014 11016 11019 11021 11022 11024 11025 11027 11029 11030 11031 11032
10666 10673 10682 10691 10701 10709 10719 10727 10732 10739 10747 10751 10757 10762 10767 10773 10780 10792 10806 10813 10817 10818 10820 10833 10846 10852 10859 10868 10873 10877 10882 10887 10891 10895 10900 10904 10909 10913 10918 10921 10926 10930 10935 10941 10947 10952 10956 10960 10962 10964 10966 10973 10980 10984 10985 10985 10986 10988 10988 10990 10993 10996 11000 11002 11001 11001 11002 11003 11004 11005 11005 11007 11008 11009 11012 11014 11016 11018 11020 11021 11023 11024 11025 11026 11027 11029
10663 10672 10679 10686 10693 10702 10712 10718 10722 10730 10737 10743 10747 10751 10759 10767 10776 10790 10799 10801 10804 10808 10815 10828 10840 10844 10850 10856 10861 10867 10873 10880 10885 10890 10894 10898 10902 10906 10911 10915 10919 10924 10928 10934 10940 10946 10951 10955 10958 10959 10961 10967 10974 10977 10976 10977 10980 10982 10983 10986 10988 10990 10993 10996 10997 10999 11000 11000 11001 11002 11003 11004 11005 11007 11010 11012 11015 11016 11017 11019 11020 11021 11022 11023 11024 11025
10658 10663 10669 10676 10682 10690 10698 10704 10712 10720 10728 10734 10734 10736 10748 10759 10768 10780 10785 10787 10795 10802 10810 10824 10834 10838 10843 10846 10851 10858 10863 10870 10877 10881 10886 10891 10895 10899 10904 10909 10913 10917 10922 10927 10932 10938 10944 10949 10953 10955 10957 10962 10967 10968 10968 10970 10973 10975 10978 10980 10982 10985 10988 10992 10995 10997 10998 10998 10998 10999 10999 10999 10999 11001 11006 11010 11012 11014 11015 11016 11017 11018 11019 11020 11021 11022
10647 10651 10660 10669 10674 10681 10690 10696 10703 10709 10717 10722 10722 10732 10752 10762 10765 10769 10770 10778 10792 10798 10805 10815 10821 10828 10836 10839 10844 10851 10856 10861 10866 10871 10876 10882 10887 10893 10897 10901 10906 10911 10915 10920 10926 10931 10936 10942 10947 10950 10953 10957 10960 10962 10962 10963 10964 10968 10974 10978 10980 10983 10986 10989 10992 10994 10995 10995 10995 10995 10996 10994 10993 10995 11000 11004 11008 11011 11012 11012 11013 11014 11016 11017 11018 11019
10639 10646 10657 10664 10668 10677 10686 10692 10697 10701 10708 10712 10716 10733 10751 10755 10757 10762 10766 10779 10791 10792 10796 10803 10808 10816 10824 10825 10830 10840 10847 10851 10856 10862 10867 10873 10880 10885 10889 10894 10899 10903 10908 10914 10919 10924 10928 10934 10939 10944 10948 10951 10954 10957 10958 10957 10958 10963 10971 10975 10978 10980 10983 10986 10988 10990 10992 10993 10993 10993 10993 10992 10991 10992 10994 10998 11002 11005 11007 11007 11008 11009 11010 11012 11014 11015
10633 10642 10650 10654 10660 10669 10676 10680 10685 10691 10698 10703 10711 10728 10740 10740 10745 10751 10756 10768 10775 10775 10781 10790 10795 10805 10812 10814 10818 10826 10833 10837 10844 10852 10858 10863 10871 10876 10880 10886 10892 10896 10902 10907 10912 10916 10921 10926 10931 10936 10941 10945 10949 10952 10953 10953 10955 10959 10967 10971 10973 10976 10979 10982 10985 10986 10988 10989 10990 10991 10991 10991 10991 10990 10990 10993 10995 10997 10998 10998 10999 11000 11003 11006 11008 11011
10629 10636 10641 10647 10654 10660 10664 10667 10673 10682 10690 10696 10705 10719 10726 10727 10732 10736 10742 10754 10762 10766 10775 10782 10787 10796 10804 10806 10808 10813 10821 10828 10834 10841 10847 10853 10861 10867 10872 10878 10884 10890 10895 10900 10905 10909 10913 10918 10923 10928 10933 10938 10942 10946 10948 10950 10951 10954 10961 10966 10969 10971 10974 10978 10980 10982 10983 10985 10986 10988 10989 10989 10989 10989 10990 10990 10991 10991 10991 10990 10989 10990 10993 10998 11002 11006
10623 10627 10632 10640 10647 10649 10652 10659 10669 10678 10682 10684 10693 10707 10716 10719 10723 10728 10737 10749 10757 10763 10769 10774 10780 10787 10792 10794 10798 10804 10812 10819 10823 10827 10835 10844 10852 10858 10864 10870 10877 10882 10887 10892 10898 10902 10906 10911 10915 10919 10925 10930 10935 10939 10942 10945 10947 10948 10953 10959 10964 10967 10969 10972 10974 10976 10978 10980 10982 10985 10985 10985 10986 10987 10988 10990 10990 10989 10987 10986 10985 10985 10987 10991 10996 11000
10617 10620 10626 10635 10638 10638 10645 10657 10666 10669 10669 10673 10687 10703 10711 10713 10715 10720 10730 10742 10750 10755 10759 10763 10768 10773 10778 10783 10790 10796 10800 10806 10812 10818 10825 10834 10842 10848 10855 10862 10869 10875 10880 10885 10890 10895 10899 10903 10907 10912 10917 10921 10927 10932 10936 10939 10942 10944 10947 10952 10958 10961 10963 10965 10968 10970 10972 10974 10977 10979 10980 10981 10982 10983 10985 10987 10988 10988 10986 10985 10984 10985 10987 10989 10993 10996
10611 10615 10620 10627 10627 10629 10642 10654 10656 10656 10660 10669 10684 10695 10699 10700 10703 10710 10720 10731 10737 10740 10743 10748 10754 10761 10766 10773 10780 10786 10789 10796 10806 10811 10815 10823 10832 10840 10847 10854 10861 10867 10872 10878 10883 10887 10892 10896 10900 10904 10909 10913 10919 10924 10929 10933 10936 10939 10942 10946 10950 10954 10957 10959 10961 10964 10966 10969 10971 10972 10973 10975 10977 10979 10981 10984 10985 10986 10986 10985 10985 10987 10989 10992 10994 10996
10606 10609 10614 10618 10619 10625 10637 10642 10641 10644 10653 10665 10675 10683 10687 10691 10695 10702 10709 10716 10722 10725 10729 10736 10743 10750 10755 10760 10769 10776 10780 10788 10798 10801 10806 10815 10825 10833 10840 10846 10853 10859 10864 10870 10875 10879 10884 10888 10892 10897 10901 10905 10910 10915 10920 10925 10929 10933 10936 10939 10943 10947 10949 10952 10954 10957 10961 10963 10964 10965 10968 10971 10973 10975 10978 10980 10982 10983 10984 10985 10986 10988 10989 10992 10994 10996
10600 10604 10608 10611 10614 10620 10626 10629 10631 10637 10646 10656 10666 10673 10678 10681 10685 10690 10696 10703 10709 10713 10719 10725 10732 10739 10743 10749 10759 10766 10771 10779 10786 10792 10799 10808 10817 10825 10832 10838 10845 10850 10856 10862 10867 10870 10875 10879 10884 10889 10892 10897 10901 10906 10911 10916 10921 10926 10930 10933 10937 10940 10942 10945 10948 10951 10954 10957 10958 10961 10964 10966 10968 10970 10973 10975 10978 10980 10981 10983 10984 10986 10987 10988 10990 10992
10595 10598 10601 10605 10609 10613 10618 10622 10625 10628 10636 10647 10657 10663 10667 10669 10674 10678 10683 10691 10697 10702 10708 10714 10720 10726 10732 10739 10749 10758 10763 10766 10772 10783 10795 10799 10806 10816 10823 10828 10835 10841 10846 10853 10857 10860 10865 10870 10875 10880 10884 10888 10893 10898 10902 10907 10912 10917 10922 10926 10930 10933 10936 10938 10941 10944 10947 10950 10953 10956 10959 10960 10962 10965 10968 10971 10974 10977 10979 10980 10981 10982 10983 10983 10985 10988
10590 10593 10596 10600 10603 10607 10611 10615 10616 10619 10628 10639 10647 10652 10654 10658 10662 10665 10669 10678 10687 10693 10699 10705 10708 10713 10722 10731 10740 10748 10750 10751 10759 10776 10787 10790 10797 10808 10814 10818 10824 10828 10834 10841 10845 10847 10855 10861 10865 10870 10875 10879 10884 10889 10893 10898 10903 10908 10913 10918 10923 10927 10929 10931 10935 10938 10940 10942 10946 10950 10953 10955 10957 10960 10963 10965 10970 10973 10974 10975 10976 10977 10979 10980 10983 10986
10585 10588 10591 10594 10597 10600 10603 10605 10607 10612 10620 10629 10636 10641 10642 10645 10649 10652 10657 10668 10679 10686 10691 10694 10696 10702 10713 10723 10729 10733 10736 10740 10751 10767 10779 10784 10790 10797 10800 10804 10809 10815 10821 10828 10832 10837 10846 10852 10855 10860 10866 10870 10875 10880 10884 10888 10893 10898 10903 10909 10914 10919 10922 10925 10928 10931 10933 10935 10939 10943 10947 10950 10952 10955 10957 10960 10964 10967 10968 10969 10971 10972 10974 10976 10979 10981
10579 10581 10584 10588 10590 10593 10595 10595 10597 10603 10611 10620 10626 10629 10630 10633 10639 10645 10651 10661 10672 10679 10680 10680 10684 10694 10705 10712 10716 10719 10724 10732 10743 10755 10767 10775 10777 10777 10782 10790 10797 10803 10810 10816 10821 10828 10835 10840 10844 10850 10855 10860 10865 10870 10874 10878 10883 10888 10893 10899 10904 10909 10914 10918 10921 10924 10926 10929 10932 10935 10940 10943 10946 10948 10951 10953 10957 10959 10961 10963 10965 10967 10969 10971 10973 10976
10572 10574 10578 10580 10582 10585 10587 10586 10588 10596 10606 10612 10615 10617 10621 10626 10632 10638 10644 10650 10659 10666 10667 10667 10673 10685 10693 10698 10702 10705 10711 10722 10732 10740 10750 10758 10760 10762 10769 10780 10787 10791 10797 10803 10810 10818 10822 10826 10832 10838 10844 10849 10855 10859 10864 10868 10873 10877 10883 10888 10893 10898 10904 10908 10913 10916 10919 10922 10924 10928 10932 10936 10938 10941 10944 10947 10949 10951 10954 10957 10959 10961 10962 10964 10966 10970
10565 10567 10570 10572 10574 10577 10578 10578 10582 10591 10599 10603 10604 10608 10614 10618 10622 10627 10631 10636 10643 10651 10655 10656 10661 10671 10679 10686 10691 10695 10701 10710 10718 10724 10733 10743 10749 10753 10760 10768 10773 10778 10784 10791 10799 10805 10809 10813 10819 10826 10832 10838 10843 10848 10852 10857 10862 10867 10872 10877 10882 10887 10893 10898 10903 10907 10910 10913 10917 10920 10924 10927 10930 10933 10936 10940 10942 10944 10947 10950 10953 10955 10957 10958 10960 10962
10557 10560 10562 10563 10566 10568 10570 10572 10576 10583 10589 10593 10594 10600 10606 10608 10610 10615 10621 10625 10631 10639 10645 10648 10651 10658 10668 10677 10681 10684 10688 10695 10702 10709 10720 10730 10738 10743 10749 10755 10760 10766 10772 10779 10787 10793 10796 10800 10807 10814 10820 10826 10831 10835 10840 10845 10851 10856 10861 10866 10871 10876 10882 10887 10892 10896 10900 10904 10908 10912 10915 10918 10922 10924 10927 10932 10935 10937 10939 10942 10945 10948 10950 10952 10953 10955
10549 10551 10554 10555 10558 10561 10562 10565 10568 10574 10580 10584 10586 10592 10598 10598 10599 10604 10611 10616 10622 10630 10636 10640 10642 10647 10656 10665 10671 10674 10677 10681 10689 10698 10709 10718 10724 10730 10737 10743 10748 10753 10759 10766 10774 10780 10783 10788 10795 10802 10807 10813 10819 10823 10828 10834 10839 10845 10850 10855 10860 10865 10871 10876 10880 10885 10890 10895 10898 10902 10906 10909 10913 10916 10918 10922 10926 10928 10931 10935 10938 10941 10944 10945 10946 10948
10542 10544 10545 10547 10550 10552 10553 10556 10560 10565 10571 10575 10577 10582 10587 10587 10589 10595 10602 10607 10613 10619 10624 10628 10632 10636 10643 10651 10660 10664 10666 10670 10677 10686 10696 10704 10711 10717 10725 10730 10735 10739 10745 10753 10761 10766 10771 10777 10783 10788 10794 10801 10807 10812 10817 10823 10828 10833 10839 10844 10849 10855 10860 10865 10869 10874 10879 10884 10888 10892 10895 10899 10903 10906 10909 10913 10916 10920 10923 10926 10929 10932 10934 10936 10938 10942
10535 10536 10537 10539 10541 10542 10544 10547 10551 10555 10560 10565 10567 10571 10574 10577 10581 10586 10591 10597 10603 10608 10611 10616 10621 10625 10630 10638 10647 10652 10656 10659 10664 10671 10681 10691 10698 10703 10710 10716 10721 10726 10731 10738 10746 10752 10758 10763 10768 10774 10781 10787 10794 10800 10806 10811 10816 10822 10827 10832 10837 10843 10848 10853 10858 10863 10867 10872 10877 10881 10885 10888 10892 10896 10900 10903 10906 10910 10914 10917 10919 10921 10923 10926 10931 10935
10528 10528 10529 10532 10534 10534 10534 10538 10543 10547 10551 10555 10558 10561 10565 10568 10572 10575 10580 10585 10591 10595 10599 10604 10609 10614 10619 10626 10633 10639 10643 10647 10652 10657 10666 10676 10684 10689 10694 10701 10708 10713 10718 10724 10730 10737 10743 10749 10754 10760 10767 10773 10780 10787 10793 10798 10803 10809 10815 10820 10825 10831 10837 10842 10846 10851 10856 10860 10865 10870 10874 10878 10882 10886 10889 10892 10896 10900 10904 10907 10910 10912 10914 10918 10922 10926
10520 10520 10522 10524 10525 10525 10526 10530 10536 10539 10541 10544 10547 10550 10554 10558 10561 10564 10569 10574 10578 10583 10587 10592 10596 10602 10607 10613 10620 10626 10631 10636 10641 10647 10653 10660 10669 10675 10680 10687 10695 10701 10706 10711 10716 10722 10728 10734 10740 10746 10753 10759 10766 10773 10779 10785 10790 10795 10801 10807 10813 10819 10825 10830 10835 10839 10844 10848 10853 10858 10863 10867 10871 10875 10878 10882 10886 10890 10893 10897 10900 10903 10905 10909 10913 10916
10513 10513 10514 10515 10515 10516 10518 10522 10525 10526 10528 10532 10536 10539 10542 10545 10548 10553 10558 10563 10566 10569 10574 10580 10584 10589 10594 10600 10607 10614 10619 10624 10630 10636 10642 10647 10654 10661 10667 10674 10681 10687 10692 10698 10703 10708 10714 10721 10727 10733 10739 10745 10752 10758 10765 10771 10777 10782 10788 10794 10800 10806 10812 10817 10822 10827 10832 10836 10841 10846 10852 10856 10860 10864 10867 10871 10876 10879 10883 10886 10890 10893 10896 10899 10903 10906